Weather in Stavyshche

Ukraine / Kyiv Region     49˚23′30″N   30˚11′28″E
temp.,
°C
wind,
m/s
gust,
m/s
humid.,
%
clouds,
%
prec.,
mm/h
press.,
hPa
HPBL,
m
3 december, thu
thu323:00se2497100 0.1 1028252
02:00se3591100 0.2 1027276
05:00−2˚se359653 0.0 1027174
08:00−1˚se469261 0.0 1026409
11:00+1˚se3589100 0.0 1026337
14:00+2˚ese4789100 0.0 1025365
17:00+1˚ese5993100 0.0 1024343
20:00+2˚se51196100 0.0 1023372
4 december, fri
fri423:00+3˚ese51096100 0.0 1023336
02:00+3˚se51195100 0.0 1022486
05:00+3˚se61194100 0.0 1021465
08:00+4˚sse61193100 0.1 1022611
11:00+5˚sse61186100 0.0 1022769
14:00+5˚se6108698 0.0 1022536
17:00+4˚se71189100 0.0 1022469
20:00+3˚se71192100 0.0 1023567
5 december, sat
sat523:00+4˚sse71189100 0.0 1024646
02:00+4˚se61187100 0.0 1025628
05:00+4˚se61189100 0.0 1025624
08:00+3˚se71088100 0.0 1026636
11:00+4˚se71181100 0.0 1027640
14:00+4˚se6977100 0.0 1027547
17:00+2˚ese610836 0.0 1027446
20:00+1˚se612822 0.0 1029482
6 december, sun
sun623:00se612820 0.0 1029519
02:00−1˚se612800 0.0 1030471
05:00−1˚ese611680 0.0 1030468
08:00−2˚ese612640 0.0 1030455
11:00ese610490 0.0 1031480
14:00+1˚ese610480 0.0 1029541
17:00−1˚ese613520 0.0 1029469
20:00−2˚ese713530 0.0 1030528
7 december, mon
mon723:00−2˚ese613490 0.0 1030566
02:00−3˚ese613500 0.0 1030575
05:00−4˚ese714510 0.0 1030562
08:00−4˚se712490 0.0 1029545
11:00−2˚se713460 0.0 1029561
14:00ese712470 0.0 1028645
17:00−2˚ese613510 0.0 1028609
20:00−3˚ese614550 0.0 1028611